星链-4129 (STARLINK-4129 )

导读 | 豆包AI

STARLINK-4129是美国SpaceX公司星链星座的互联网卫星,于2022年7月24日由猎鹰9号火箭发射,属于星链Group 4-16组网任务,单星质量约297kg,运行在近550公里的近地轨道。作为星链低轨星座的组成部分,它主要为全球偏远、基础设施薄弱地区提供高速低延迟宽带互联网服务,支持视频通话、在线游戏等应用,帮助星链实现全球无缝网络覆盖的目标。

Basic Information
目录编号:
53251
目录名称:
STARLINK-4129
国际标识:
2022-086K
轨道中心:
EARTH
卫星名称:
星链-4129
卫星全名:
星链-4129 (STARLINK-4129 )
卫星状态:
在轨 (已飞行1376 天)
发射日期:
2022-07-24 UTC
国别 :
美国 (US)
星等 :
--
Orbit Information
数据来源 国际轨道数据 AOE轨道数据
星历时间 2026-04-30T21:38:16+0800
9小时前
查看轨道信息
2026-04-30T17:00:00+0800
13小时前
查看轨道信息
半长轴 6917.871km 6917.86km
偏心率 0.0001499 0.000131
轨道倾角 53.218° 53.218°
近地点辐角 95.598° 84.306°
升交点赤经 321.228° 322.096°
平近点角 264.518° 305.576°
近地点 538.697km 538.816km
远地点 540.771km 540.63km
周期 95.437分钟 95.437分钟
每日圈数 15.088431 15.088468
Detailed Information
固有亮度:
5
最大亮度:
2.5
卫星平台:
Starlink v1.5
覆盖范围:
全球
运营商:
太空探索技术公司
运营商所在国:
美国
制造商(研发单位):
太空探索技术公司
制造商所在国:
美国
使用方式:
暂无
Satellite Introduction
星链(Starlink)计划是由太空探索技术公司(SpaceX)提出的一个巨型低轨卫星互联网星座项目,计划在2019年至2024年间在太空搭建由约1.2万颗卫星组成的“星链”网络,其中1584颗将部署在地球上空550千米处的近地轨道,并从2020年开始工作。该卫星仍在工作。
2D Orbit Map
3D Orbit Map
Orbit Altitude Analysis Chart
Orbit Inclination Analysis Chart
Orbit Comprehensive Analysis Chart
View Comprehensive Chart